[[{"header":{"parameterUnit":"m.s-1","parameterCategory":1,"la1":30.2992,"la2":30.254,"lo1":-89.0895,"lo2":-89.0443,"dy":0.0025,"dx":0.0025,"nx":19,"ny":19,"refTime":"2026-05-21T03:00:00:Z","depth":0,"parameterNumber":2,"parameterNumberName":"U-component_of_WINDS"},"data":[0,0,0,-1.89,-1.8901,-1.8975,-1.8975,-1.9072,-1.9072,0,0,0,0,0,0,0,0,0,0,0,-1.8877,-1.8878,-1.8899,-1.8901,-1.8975,-1.8975,-1.9071,-1.9072,0,0,0,0,0,0,0,0,0,0,0,-1.8877,-1.8878,-1.8879,-1.8902,-1.8975,-1.8975,-1.9071,-1.9015,0,0,0,0,0,0,0,0,0,0,-1.8944,-1.8922,-1.8878,-1.8879,-1.8902,-1.8975,-1.8975,-1.9013,-1.9019,-1.9039,0,-1.9055,0,-1.9065,-1.9079,-1.9079,0,0,0,-1.8902,-1.8917,-1.8937,-1.8879,-1.8903,-1.8975,-1.8942,-1.9016,-1.9023,-1.9047,-1.9056,-1.906,-1.9067,-1.9079,-1.908,-1.9189,-1.9189,0,0,-1.8898,-1.8891,-1.8932,-1.8942,-1.8928,-1.894,-1.8944,-1.902,-1.903,-1.9056,-1.9062,-1.9068,-1.908,-1.9081,-1.9189,-1.9189,0,0,0,-1.8886,-1.8888,-1.8906,-1.8938,-1.8951,-1.8942,-1.8947,-1.9027,-1.9033,-1.9063,-1.9069,-1.9081,-1.9082,-1.9188,-1.9189,-1.9204,0,0,0,-1.8883,-1.8881,-1.8904,-1.8901,-1.8949,-1.8989,-1.8952,-1.9028,-1.9037,-1.9069,-1.9081,-1.9083,-1.9187,-1.9188,-1.9202,-1.9212,0,0,0,-1.8873,-1.8879,-1.889,-1.89,-1.8931,-1.8988,-1.8999,-1.903,-1.9041,-1.9079,-1.9083,-1.9187,-1.9188,-1.9201,-1.921,-1.9238,0,0,0,-1.886,-1.8903,-1.889,-1.8941,-1.8931,-1.8997,-1.8999,-1.9049,-1.9084,-1.9081,-1.9188,-1.9189,-1.9201,-1.9209,-1.9237,-1.926,-1.9269,0,0,-1.891,-1.8909,-1.8939,-1.893,-1.8996,-1.8986,-1.9056,-1.9096,-1.9107,-1.9162,-1.9164,-1.9203,-1.921,-1.9238,-1.9325,-1.9332,0,0,0,-1.8953,-1.8975,-1.8994,-1.9026,-1.9057,-1.9085,-1.9114,-1.9129,-1.9176,-1.9133,-1.9222,-1.9226,-1.9243,-1.9254,-1.926,-1.9275,-1.9194,-1.9194,-1.9194,-1.9013,-1.9025,-1.9077,-1.9097,-1.9129,-1.916,-1.9187,-1.9213,-1.9215,-1.9237,-1.9252,-1.9303,-1.9316,-1.9321,-1.9337,-1.9266,-1.9267,-1.9267,-1.9267,-1.9087,-1.912,-1.9124,-1.9175,-1.9188,-1.9232,-1.9264,-1.9265,-1.9309,-1.9292,-1.9308,-1.9287,-1.9328,-1.9343,-1.9268,-1.9268,-1.9268,-1.9267,-1.9267,-1.9127,-1.9144,-1.9162,-1.921,-1.9247,-1.9268,-1.931,-1.9321,-1.9332,-1.9347,-1.9365,-1.9365,-1.9365,-1.9355,-1.9355,-1.9355,-1.9356,-1.9356,-1.9356,-1.916,-1.9179,-1.9212,-1.925,-1.9272,-1.9304,-1.9337,-1.936,-1.9389,-1.9394,-1.9394,-1.9395,-1.9331,-1.9313,-1.9359,-1.9358,-1.9358,-1.9358,-1.9357,-1.9229,-1.9215,-1.9266,-1.9289,-1.9335,-1.9371,-1.9385,-1.9432,-1.9453,-1.9474,-1.9473,-1.9423,-1.9423,-1.9418,-1.9404,-1.947,-1.947,-1.947,-1.947,-1.9261,-1.9262,-1.9317,-1.9353,-1.939,-1.9408,-1.9467,-1.9495,-1.9521,-1.9535,-1.9528,-1.9511,-1.9505,-1.9508,-1.9501,-1.9488,-1.9574,-1.9574,-1.9574,-1.9304,-1.931,-1.9356,-1.938,-1.9417,-1.945,-1.9506,-1.9549,-1.9576,-1.9579,-1.9547,-1.9542,-1.9515,-1.9505,-1.9505,-1.9494,-1.947,0,0]},{"header":{"parameterUnit":"m.s-1","parameterCategory":1,"la1":30.2992,"la2":30.254,"lo1":-89.0895,"lo2":-89.0443,"dy":0.0025,"dx":0.0025,"nx":19,"ny":19,"refTime":"2026-05-21T03:00:00:Z","depth":0,"parameterNumber":3,"parameterNumberName":"V-component_of_WINDS"},"data":[0,0,0,2.1523,2.1523,2.1531,2.1531,2.1545,2.1545,0,0,0,0,0,0,0,0,0,0,0,2.1523,2.1523,2.1523,2.1523,2.1531,2.1531,2.1545,2.1545,0,0,0,0,0,0,0,0,0,0,0,2.1523,2.1523,2.1524,2.1523,2.1531,2.1531,2.1545,2.1538,0,0,0,0,0,0,0,0,0,0,2.153,2.1532,2.1523,2.1524,2.1523,2.1531,2.1531,2.1537,2.1538,2.1544,0,2.1549,0,2.1548,2.1547,2.1547,0,0,0,2.1521,2.1531,2.1531,2.1524,2.1524,2.1531,2.1527,2.1538,2.1539,2.1545,2.1549,2.155,2.1548,2.1547,2.1547,2.159,2.159,0,0,2.1521,2.1525,2.1531,2.1532,2.1531,2.1527,2.1527,2.1538,2.1543,2.1549,2.155,2.1548,2.1547,2.1547,2.159,2.159,0,0,0,2.1521,2.1525,2.1525,2.1532,2.1533,2.1527,2.1527,2.1542,2.1542,2.155,2.1549,2.1547,2.1547,2.1589,2.159,2.1611,0,0,0,2.1521,2.1525,2.1525,2.1528,2.1533,2.1538,2.1531,2.1541,2.1543,2.1548,2.1547,2.1547,2.1589,2.159,2.161,2.162,0,0,0,2.1522,2.1525,2.1527,2.1528,2.1532,2.1537,2.1538,2.1542,2.1542,2.1547,2.1548,2.1589,2.159,2.1609,2.1618,2.1635,0,0,0,2.1524,2.1543,2.1528,2.1549,2.1532,2.1551,2.1537,2.1551,2.1558,2.1547,2.1589,2.159,2.1608,2.1616,2.1633,2.165,2.1657,0,0,2.155,2.1546,2.1559,2.1546,2.1569,2.1549,2.1576,2.1576,2.1571,2.1584,2.1585,2.161,2.1618,2.1634,2.1695,2.1701,0,0,0,2.1569,2.1578,2.1583,2.1591,2.1595,2.1599,2.1596,2.1597,2.1609,2.1579,2.1621,2.1625,2.1634,2.1642,2.1647,2.1656,2.1594,2.1594,2.1593,2.161,2.1607,2.1629,2.1628,2.1637,2.1637,2.1644,2.1645,2.1635,2.1646,2.1649,2.1687,2.1697,2.17,2.171,2.1658,2.1658,2.1658,2.1658,2.165,2.1663,2.1657,2.1675,2.1672,2.1688,2.1691,2.1685,2.17,2.1683,2.1691,2.1674,2.1707,2.1715,2.166,2.1659,2.1659,2.1659,2.1659,2.1677,2.1683,2.1687,2.1703,2.1716,2.1715,2.1731,2.1727,2.1723,2.1732,2.1737,2.1737,2.1737,2.1735,2.1735,2.1735,2.1735,2.1735,2.1735,2.1703,2.1707,2.1722,2.1732,2.174,2.175,2.1755,2.1762,2.177,2.1766,2.1766,2.1758,2.1711,2.1699,2.1737,2.1737,2.1737,2.1737,2.1736,2.1743,2.1735,2.1758,2.1767,2.1781,2.1797,2.1794,2.1812,2.1818,2.1827,2.1819,2.1785,2.1779,2.1775,2.1766,2.1818,2.1818,2.1818,2.1818,2.1766,2.1765,2.179,2.1805,2.1819,2.1821,2.185,2.1857,2.1861,2.1866,2.1858,2.1845,2.1842,2.1838,2.1833,2.1824,2.1891,2.1891,2.1891,2.1792,2.1793,2.1817,2.1824,2.1837,2.1849,2.1877,2.1896,2.1899,2.1894,2.187,2.1867,2.1846,2.184,2.1831,2.1822,2.1806,0,0]}]]